Dewpoint
66 65 64 64 64 64 64 65 64 65 64 65 64 63 62 62 62 62 61 60 59 58 58 58 59 58 58 58 60 62 63 63 63 62 64 64 65 66 70 70 70 70 70 70 69 69 68 68 67 67 67 66 65 65 64 64 66 65 64 64 64 63 63 62 62 62 62 62 63 63 64 65 65 66 66 66 66 66 66 66 66 66 66 66 66
66 65 65 64 64 64 65 64 65 64 65 65 64 63 63 62 63 63 62 61 61 60 63 64 64 63 62 60 60 60 61 62 63 62 63 64 64 66 69 70 70 70 70 70 70 69 69 68 68 67 67 67 66 65 65 64 66 65 65 64 64 64 63 63 63 63 63 62 62 62 64 65 65 65 66 66 66 66 66 66 66 66 66 66 65
66 65 65 64 64 65 65 65 64 65 65 65 65 64 63 63 64 63 62 62 63 63 64 64 64 63 63 62 62 62 62 62 62 62 63 64 64 65 66 70 70 69 69 69 70 69 69 69 68 68 67 67 66 66 66 65 65 66 65 64 64 64 63 63 63 63 63 62 62 62 63 65 65 65 66 66 66 66 66 66 66 66 66 66 66
66 65 65 65 65 65 65 64 65 65 66 65 64 64 64 65 65 65 64 64 64 64 64 63 63 64 63 63 63 62 63 62 62 62 63 64 64 64 65 67 70 70 69 69 69 69 69 69 69 68 67 66 66 67 65 65 65 66 65 64 64 64 64 63 63 62 63 63 63 63 63 64 65 65 65 65 66 66 65 66 66 66 66 66 65
66 66 67 65 65 64 64 65 65 66 66 66 65 65 65 65 65 65 65 64 64 64 65 63 63 63 63 63 63 63 63 62 62 61 62 63 64 64 64 65 67 69 69 69 69 69 69 69 69 68 68 67 66 67 66 65 65 65 65 64 64 64 64 64 63 62 63 62 63 63 63 63 65 65 65 65 66 66 66 66 65 65 65 65 65
66 66 66 65 65 65 65 65 65 65 66 65 64 64 63 63 64 64 66 63 62 62 63 63 63 62 63 63 63 63 62 62 62 62 62 62 63 64 64 64 65 66 68 69 69 68 68 69 69 68 68 67 67 67 66 66 65 65 65 65 64 65 64 64 64 63 63 63 63 62 63 63 64 65 65 65 65 65 66 66 65 65 65 65 65
66 67 66 66 66 65 65 65 65 64 64 64 64 63 63 63 63 62 62 61 61 62 62 61 61 63 63 63 63 64 63 63 63 63 63 62 62 63 64 65 65 65 66 66 68 69 68 68 68 68 68 67 67 68 68 66 66 65 65 65 65 65 64 64 64 63 63 63 63 62 62 63 63 65 64 65 65 65 65 65 65 65 65 65 65
66 66 65 65 64 64 64 64 65 64 64 65 64 64 62 62 62 63 61 61 61 61 61 61 62 63 63 63 63 63 63 63 63 64 64 63 63 63 63 64 64 65 66 65 65 65 67 68 68 68 68 67 67 67 67 67 66 66 66 65 65 65 65 64 64 63 63 63 63 63 62 62 62 65 64 64 65 65 65 65 65 65 65 65 65
67 66 65 65 64 64 64 65 65 64 63 63 63 63 62 62 61 62 62 61 61 60 62 61 62 63 63 63 63 63 63 63 63 63 64 64 64 63 64 64 64 67 65 65 65 65 66 67 67 66 66 67 67 67 67 67 67 67 66 65 65 65 65 65 64 63 63 63 63 63 62 62 62 63 64 64 65 65 65 65 64 64 65 64 64
67 66 65 65 65 64 64 64 64 63 63 62 61 62 62 61 62 62 62 61 60 61 61 62 63 63 63 63 63 63 63 63 63 65 63 64 64 64 64 64 64 64 65 65 65 64 64 64 65 67 67 65 66 66 66 67 67 67 67 66 66 66 66 65 65 64 63 63 63 63 63 62 62 62 64 63 64 65 65 64 64 64 64 64 64
66 66 66 66 64 63 63 63 63 63 62 62 61 62 62 62 62 62 62 61 62 61 62 62 63 62 62 62 62 62 63 63 63 62 62 63 63 65 64 64 64 64 64 64 64 64 64 64 64 64 65 66 66 66 66 66 66 66 67 67 65 66 66 65 66 64 64 63 63 63 63 63 62 62 62 64 63 64 65 64 65 64 64 64 64
65 65 65 64 63 63 64 63 63 63 62 62 62 62 62 62 62 62 61 61 61 62 61 61 61 60 61 61 61 61 61 61 60 61 61 61 62 63 63 64 63 64 63 63 64 64 65 64 64 64 64 65 66 66 66 66 66 65 67 66 66 66 66 66 66 66 64 63 63 63 63 63 62 62 62 63 64 64 64 64 64 64 63 64 63
66 65 64 67 64 63 63 63 63 63 62 62 63 63 63 62 62 62 61 60 60 60 61 60 58 58 58 58 59 60 61 60 59 60 60 60 60 61 62 63 62 62 62 62 63 63 64 64 64 64 64 64 65 66 66 66 66 66 66 66 66 66 66 66 65 66 64 64 63 64 63 63 63 62 62 62 63 64 64 64 64 64 63 63 63
66 64 64 64 62 63 63 64 63 63 65 65 64 66 65 64 62 60 61 61 60 60 61 58 56 57 58 58 54 56 57 57 59 59 60 60 60 61 60 60 61 62 61 61 62 62 63 63 64 64 65 64 64 64 65 65 66 66 66 66 66 65 66 66 66 66 66 64 63 63 63 63 63 62 62 62 63 63 64 64 64 64 63 63 63
65 65 64 63 62 62 63 63 64 66 64 64 64 64 63 61 61 60 60 60 60 61 61 59 58 57 58 56 52 56 56 54 53 59 60 60 59 59 60 60 61 61 61 61 61 61 62 62 63 63 64 64 64 64 64 65 65 66 66 66 66 66 66 66 67 66 66 65 64 64 63 64 63 63 63 62 62 63 64 64 64 64 64 63 63
65 65 64 63 63 63 64 64 65 65 64 63 63 62 61 60 60 61 59 57 57 58 60 59 59 57 55 55 56 56 54 50 54 58 58 58 59 59 59 59 60 60 61 61 61 62 62 62 62 63 63 63 64 64 64 64 64 65 65 66 66 65 66 66 67 66 67 65 64 64 64 63 63 63 62 62 62 63 63 63 64 63 63 63 63
65 65 65 64 63 63 64 64 64 64 65 64 63 62 62 61 60 59 59 58 57 55 57 59 58 59 58 56 55 53 53 54 57 58 57 58 58 58 59 60 59 59 59 60 61 61 61 62 62 62 62 63 63 64 64 64 64 65 65 65 66 66 66 66 67 66 67 66 64 63 64 64 64 63 62 63 61 62 63 63 63 63 63 63 62
65 65 66 65 64 63 63 64 63 63 64 64 63 62 62 60 60 60 59 59 58 56 56 57 58 59 59 57 58 57 57 58 58 55 58 59 59 58 59 59 59 59 59 60 60 60 61 61 61 62 62 62 63 63 64 64 65 64 64 65 65 65 64 65 67 67 67 67 65 65 65 64 64 63 63 62 61 61 62 64 64 63 63 63 63
65 65 65 65 64 63 63 63 63 63 64 62 62 61 61 61 61 59 60 59 57 57 57 56 57 56 59 60 60 60 59 58 57 58 56 57 58 57 58 58 58 58 59 59 60 60 60 61 61 61 62 62 62 63 63 64 64 65 65 65 64 64 63 63 64 66 65 66 66 66 66 65 64 64 63 62 62 61 61 64 64 63 63 63 62
65 64 64 63 63 63 63 63 62 62 62 61 61 60 59 60 60 59 59 58 57 57 57 56 56 57 57 58 57 58 57 59 60 58 57 56 57 57 57 57 57 58 59 59 59 60 60 60 60 61 61 62 62 62 63 63 64 64 64 65 64 64 63 63 62 62 64 65 65 65 66 65 64 64 64 62 62 62 61 63 63 63 63 63 63
63 62 62 62 62 62 61 61 61 61 61 60 59 58 58 58 58 58 58 57 58 59 57 57 56 56 56 55 55 55 56 57 58 59 58 57 57 57 57 58 58 58 58 58 59 59 60 60 60 61 61 61 62 62 62 62 63 64 64 64 64 63 63 63 61 61 61 63 65 66 65 66 65 65 64 63 62 62 62 63 63 63 63 63 62
61 61 61 61 61 61 61 60 60 60 60 58 58 58 57 57 57 57 57 57 57 57 58 57 57 57 58 59 58 57 58 57 57 58 59 59 56 57 58 58 57 58 58 58 58 59 60 60 60 60 60 61 61 62 62 62 63 63 63 63 64 64 63 62 60 59 59 61 63 64 65 66 66 65 64 63 62 62 62 62 63 64 63 63 63
61 61 61 61 61 61 60 60 60 61 59 58 58 57 57 57 57 57 58 58 57 57 57 58 59 59 59 58 58 60 59 58 59 59 59 58 58 58 58 58 58 58 58 58 59 59 60 60 59 60 60 61 61 61 62 62 63 63 62 63 63 63 63 62 60 59 59 61 62 64 65 66 66 64 64 63 63 62 63 62 62 63 63 63 63
60 60 59 59 60 60 60 59 59 58 58 58 57 57 57 57 57 57 57 57 57 58 58 60 60 60 61 61 60 60 59 58 58 59 59 59 58 58 58 59 59 58 58 59 59 59 59 59 59 59 60 61 61 61 62 63 64 63 62 62 62 62 63 63 61 60 59 61 61 63 64 65 65 64 64 64 63 63 63 63 62 63 63 63 63
58 58 57 57 59 58 58 58 58 58 57 57 57 56 56 57 56 56 57 58 58 58 59 58 56 56 57 59 58 57 56 58 58 58 59 59 59 57 58 59 58 58 58 58 57 57 58 58 59 60 60 60 61 62 62 63 64 63 62 62 61 60 60 63 63 61 59 58 59 61 62 64 64 64 64 64 63 63 63 62 61 61 61 62 62
58 58 57 57 58 58 58 58 57 57 57 56 56 56 56 57 56 57 58 58 58 56 56 54 54 53 54 55 55 54 54 55 56 57 57 57 57 57 57 58 58 57 57 56 55 56 56 56 58 59 60 60 61 62 62 63 64 63 62 62 62 60 59 59 61 61 60 58 57 58 59 61 62 62 63 64 63 61 61 60 59 59 59 59 61
58 58 57 57 57 57 57 57 56 56 56 56 57 56 55 56 57 57 59 57 56 55 54 52 52 51 51 52 52 51 51 52 54 54 55 55 55 56 56 54 56 57 56 55 55 56 56 57 57 58 59 60 60 61 61 62 62 62 61 62 62 60 58 58 59 60 60 59 57 57 58 59 59 59 59 60 60 60 61 61 60 60 60 59 60
58 57 56 57 57 57 57 56 56 56 56 56 56 57 56 57 56 57 57 56 53 52 52 51 51 51 50 51 50 50 50 50 51 52 53 53 54 55 56 56 54 52 54 55 55 54 56 56 55 55 58 60 60 60 61 61 62 61 62 62 62 62 59 57 56 58 60 60 59 58 57 58 58 58 59 60 61 61 61 61 61 60 60 60 61
57 57 57 56 56 56 56 55 55 55 55 56 56 57 59 58 57 56 56 55 53 52 51 50 50 50 49 49 49 48 48 49 50 51 52 53 53 54 56 55 54 53 52 53 53 55 56 57 56 55 59 59 59 60 60 61 61 61 62 62 63 63 60 58 56 57 58 58 58 56 58 58 58 59 60 62 62 62 61 61 60 60 60 61 62
57 57 57 56 56 58 55 55 54 56 56 56 58 58 58 58 57 56 54 53 52 52 52 51 50 49 49 48 48 48 48 48 48 50 51 52 52 53 53 53 54 53 53 51 52 55 56 55 55 57 59 58 58 58 60 60 59 61 62 62 62 62 59 57 56 56 56 55 55 54 55 57 58 59 60 63 62 61 61 61 60 60 61 62 62
57 56 56 55 55 55 55 55 55 56 56 57 58 57 58 57 57 55 54 52 51 51 51 51 50 49 47 47 47 47 47 48 48 49 49 50 50 51 51 52 52 52 52 52 51 55 55 54 57 59 57 56 55 57 58 58 58 58 61 62 62 60 58 59 57 56 55 55 54 55 58 57 56 57 59 61 62 61 61 61 62 61 62 62 60
56 56 55 55 55 54 54 55 55 55 56 57 57 57 57 57 57 55 53 52 51 50 50 50 50 48 47 47 47 47 47 48 48 49 49 49 49 50 50 51 51 52 52 51 51 51 54 55 57 55 55 53 54 55 55 56 56 56 57 60 61 59 61 61 58 56 55 54 54 56 58 59 58 57 58 60 61 62 61 61 62 61 61 59 58
55 55 55 54 54 54 54 55 55 55 55 56 56 56 56 56 56 54 52 51 51 51 50 49 49 48 48 47 47 47 47 47 47 48 48 48 49 49 49 50 51 51 52 51 50 50 52 55 55 53 52 52 52 54 53 53 54 54 55 58 60 61 61 62 62 57 55 54 53 53 53 54 56 58 58 59 61 62 60 59 59 57 59 59 57
55 54 53 53 53 53 53 53 53 54 54 54 55 56 56 56 55 54 53 52 51 50 50 49 49 49 48 47 46 46 47 46 47 47 48 48 48 48 48 49 50 50 51 50 49 49 49 50 51 51 51 51 51 53 52 52 52 53 54 56 58 60 60 60 61 61 57 55 53 52 52 52 53 54 56 55 55 56 56 55 56 55 57 57 54
53 52 52 52 52 52 52 52 52 52 53 53 54 55 55 55 54 54 53 52 51 50 50 49 49 48 47 47 46 46 47 46 46 47 47 47 48 47 47 48 48 49 49 50 49 48 48 48 50 49 50 50 51 51 52 52 53 53 54 55 57 54 53 53 55 58 57 55 53 52 52 52 52 52 53 53 53 54 54 54 54 54 54 55 53
52 52 51 51 51 50 50 51 51 51 52 53 53 54 55 55 54 54 52 51 51 51 50 49 49 48 47 46 46 46 46 45 46 46 47 47 47 47 47 47 47 47 48 48 49 48 48 47 48 48 49 49 50 51 52 52 52 53 54 55 54 51 51 51 53 53 52 52 53 52 52 52 52 52 52 52 53 53 53 53 54 54 53 53 52
51 51 51 50 50 49 48 49 49 49 51 51 51 52 54 55 54 53 51 50 51 51 51 50 50 48 48 47 46 46 46 45 45 45 46 46 47 47 46 47 47 48 48 48 48 47 47 47 47 47 48 49 49 50 51 50 51 52 53 54 52 50 49 50 50 51 50 49 49 49 50 51 51 51 51 51 52 52 53 53 53 53 52 53 52
51 50 50 50 49 48 47 48 48 48 48 48 48 49 51 54 53 52 51 51 52 51 51 50 49 49 47 47 46 46 45 45 45 45 45 45 46 46 46 46 46 47 47 47 47 47 46 46 46 46 47 47 48 49 49 50 50 50 50 53 51 49 48 47 48 49 50 49 49 48 48 51 51 50 51 51 52 52 52 52 53 53 52 52 52
50 50 49 48 48 47 47 47 47 47 47 47 47 48 50 51 51 51 51 52 52 52 51 50 49 48 47 47 46 46 45 45 45 45 45 45 45 45 46 45 46 46 46 46 46 46 46 45 45 46 46 47 47 47 49 49 48 49 48 49 49 49 48 47 46 47 48 48 47 47 47 48 51 53 51 51 51 52 52 52 52 53 52 52 51
50 49 48 47 47 46 46 46 46 47 46 45 46 48 49 49 51 51 51 51 51 52 52 50 49 48 47 47 47 46 45 45 45 44 44 45 44 44 44 45 45 45 45 46 45 45 45 45 45 45 45 45 46 47 49 47 46 46 46 48 47 47 48 47 46 45 46 47 46 46 46 47 48 51 52 51 51 51 52 52 53 53 53 52 51
50 49 47 46 45 45 44 44 44 45 45 45 46 47 48 47 48 47 46 46 47 47 47 47 48 47 46 45 46 47 48 49 49 47 46 46 45 43 43 43 44 44 45 45 45 45 45 45 44 44 44 44 45 46 47 46 45 44 46 46 46 46 48 47 45 45 46 45 45 44 44 45 47 46 48 48 49 51 52 52 52 52 52 51 50
49 48 47 46 45 44 44 43 43 44 44 44 47 46 47 47 46 46 45 45 45 45 45 44 44 44 44 44 46 48 47 48 48 44 43 43 45 45 44 43 43 43 44 44 44 44 44 44 43 43 43 43 44 45 46 46 46 45 44 44 43 44 44 44 45 45 46 45 43 42 43 45 45 45 45 45 46 48 52 53 54 53 51 49 49
48 47 45 44 43 43 43 42 42 42 42 43 42 41 42 44 45 44 43 43 43 42 42 41 41 43 42 42 42 44 46 49 45 44 42 43 43 43 43 44 45 43 43 43 44 44 44 43 43 43 43 43 44 45 46 46 46 44 44 43 43 43 42 41 40 43 45 45 43 41 42 44 44 43 43 44 45 46 47 52 50 51 51 49 48
47 45 43 43 42 42 42 42 41 41 41 42 39 40 40 41 43 44 42 41 41 40 39 39 39 39 40 40 41 42 43 47 45 42 44 44 43 43 42 42 42 40 40 42 43 43 43 43 43 42 42 42 43 45 45 46 45 44 44 43 43 42 41 41 41 40 43 46 42 41 40 43 44 43 42 43 44 45 46 45 46 47 48 48 48
45 44 43 42 41 41 41 41 41 41 40 39 38 39 39 38 39 40 39 38 38 37 37 37 37 37 38 40 40 40 41 46 46 42 43 43 46 44 43 43 43 42 39 39 40 43 43 42 42 42 42 42 43 43 45 45 46 44 44 43 43 42 42 41 41 41 43 45 43 40 39 41 42 42 41 43 44 44 44 45 45 45 46 46 46
44 43 42 42 41 41 41 40 40 40 39 39 38 38 38 37 37 38 37 38 38 38 38 37 37 36 37 38 38 39 39 41 41 41 44 42 41 42 42 42 42 42 42 41 40 40 42 42 42 41 42 42 42 42 44 45 45 45 44 44 43 43 42 42 43 43 43 44 42 40 39 40 42 41 41 42 44 43 44 44 44 44 44 44 44
44 43 42 41 41 41 41 40 40 40 40 38 37 37 37 37 37 38 38 38 38 37 38 38 38 38 36 37 38 38 38 39 42 41 42 42 41 42 41 41 41 41 41 41 41 41 41 41 41 41 42 42 42 41 42 43 45 46 47 45 45 44 43 43 42 42 42 43 43 41 38 40 41 40 40 42 43 43 43 43 43 43 43 43 43
44 44 42 41 40 40 40 41 40 39 38 38 37 38 38 38 38 39 37 36 36 36 36 36 38 39 38 37 37 37 38 38 40 39 42 43 42 41 40 40 40 41 41 43 40 40 41 40 40 41 41 41 40 40 41 42 44 45 46 44 44 43 41 41 40 41 41 42 44 41 39 39 41 40 40 41 42 41 42 43 42 43 43 43 42
43 42 40 40 40 40 41 41 40 40 38 38 38 38 38 37 37 37 37 36 35 35 35 35 36 38 40 39 36 36 37 37 38 37 38 41 39 39 39 39 39 39 40 41 41 40 39 39 39 39 39 39 39 40 39 40 41 44 44 43 42 42 40 40 40 40 41 42 43 43 40 39 40 40 39 40 40 40 41 42 43 42 42 42 42
42 41 40 40 39 39 41 41 41 40 39 39 39 38 37 37 38 36 36 35 35 35 34 35 35 36 40 42 42 36 36 37 37 37 38 40 38 38 39 39 38 38 39 40 41 41 40 40 39 39 39 39 39 40 40 40 40 42 43 42 43 42 41 41 40 40 40 41 42 43 39 39 40 40 39 40 40 40 41 41 42 42 42 41 41
42 41 40 38 38 39 39 42 46 42 41 40 39 37 37 38 39 36 35 35 34 34 34 34 34 35 35 38 41 39 38 37 36 36 37 39 38 37 37 38 37 37 38 39 39 39 39 39 39 40 39 40 41 41 41 40 40 41 41 42 43 42 41 41 41 40 39 39 42 43 39 39 39 40 40 38 37 39 40 41 41 41 42 42 42